Location: Grieser Field
(39.7333°N, 81.7975°W)
Time: 17:47:50
(UTC-04:00)

Hubble Space Telescope - Visible Passes

Search period start: 28 July 2015 00:00
Search period end: 07 August 2015 00:00
Orbit: 542 x 545 km, 28.5° (Epoch: 27 July)

Date Brightness Start Highest point End Pass type
(mag) Time Alt. Az. Time Alt. Az. Time Alt. Az.
28 Jul 3.2 04:35:49 11° SSE 04:35:49 11° SSE 04:36:00 10° SSE visible
04 Aug 2.9 22:17:29 10° SSW 22:18:36 14° SSW 22:18:36 14° SSW visible
05 Aug 2.6 22:08:20 10° SW 22:10:24 16° S 22:10:24 16° S visible
06 Aug 2.5 21:59:16 10° SW 22:01:59 17° S 22:02:06 17° S visible
